STARLINK-2547 (48286 NORAD) Tracking and Keplerian Element Data

This shows tracking and keplerian element data for the satellite.

Feedback or suggestion? Click here.




ElementValue
Catalog48286
NameSTARLINK-2547
Epoch Orbit197
Epoch Day173.83334491
Epoch Year2021
RAAN257.2686
Inclination53.0518
Eccentricity0.0001557
Argument of Perigee42.7443
Mean Anonmoly331.9071
Mean Motion15.72754892
Decay Rate0.0075525
L11 48286U 21036L 21173.83334491 .00755250 00000-0 50100-2 0 9991
L22 48286 53.0518 257.2686 0001557 42.7443 331.9071 15.72754892 1971

Live tracking and technical data element details for STARLINK-2547 (NORAD 48286). STARLINK-2547 can be tracked NOW for your location showing map with azimuth and elevation plus other details from your city location.

Track the satellite on the map from your city or location and see movement details for azimuth, elevation, latitude, longitude, range, height, and movement on the map or in text.







IsCatalogInMostPopularTable: catalog: 48286, numindb: 22
Update: records affected: 1



GetName: 48286 STARLINK-2547

Hit Count: updated at: Thu, 24 Jun 2021 02:46:29 GMT